Port Elizabeth, South Africa

6:55 AM SAST on April 29, 2017 (GMT +0200)
Port Elizabeth

Weather History for FAPE - October, 2013

Change the Weather History Date:

Tuesday, October 1, 2013

  Actual Average Record
Temperature  
Mean Temperature 74 °F -  
Max Temperature 96 °F 68 °F 96 °F (2013)
Min Temperature 51 °F 53 °F 44 °F (2008)
Cooling Degree Days 8    
Growing Degree Days 24 (Base 50)    
Moisture  
Dew Point 48 °F    
Average Humidity 49    
Maximum Humidity 82    
Minimum Humidity 10    
Precipitation  
Precipitation 0.00 in 0.01 in - ()
Sea Level Pressure  
Sea Level Pressure 30.03 in    
Wind  
Wind Speed 7 mph ()    
Max Wind Speed 20 mph    
Max Gust Speed -    
Visibility 15.8 miles    
Events      
Averages and records for this station are not official NWS values.
T = Trace of Precipitation, MM = Missing Value Source: Averaged Metar Reports

Daily Weather History Graph

Daily Weather History Graph

Search for Another Location

Airport or City:

Trip Planner

Search our weather history database for the weather conditions in past years. The results will help you decide how hot, cold, wet, or windy it might be!

Date:

Astronomy

Oct. 01, 2013 Rise Set
Actual Time 5:54 AM SAST 6:20 PM SAST
Civil Twilight 5:29 AM SAST 6:45 PM SAST
Nautical Twilight 5:00 AM SAST 7:15 PM SAST
Astronomical Twilight 4:30 AM SAST 7:44 PM SAST
Moon 3:31 AM SAST (10/1) 3:03 PM SAST (10/1)
Length of Visible Light 13h 16m
Length of Day
12h 25m
Waning Crescent, 14% of the Moon is Illuminated
Oct 1
Waning Crescent
Oct 5
New
Oct 12
First Quarter
Oct 19
Full
Oct 27
Last Quarter

Hourly Weather History & Observations

Time (SAST) Temp. Dew Point Humidity Pressure Visibility Wind Dir Wind Speed Gust Speed Precip Events Conditions
12:00 AM 62.6 °F 55.4 °F 77% 30.12 in - NE 11.5 mph - N/A   Clear
1:00 AM 59.0 °F 53.6 °F 82% 30.09 in - NNE 9.2 mph - N/A   Clear
2:00 AM 58 °F 52 °F 73% 30.09 in 19 mi North 9.2 mph - -  
2:00 AM 59.0 °F 51.8 °F 77% 30.06 in - NNE 9.2 mph - N/A   Clear
3:00 AM 59.0 °F 51.8 °F 77% 30.06 in - North 9.2 mph - N/A   Clear
4:00 AM 55.4 °F 48.2 °F 77% 30.04 in - NW 3.5 mph - N/A   Clear
5:00 AM 55.4 °F 48.2 °F 77% 30.04 in - NNW 2.3 mph - N/A   Clear
6:00 AM 53.6 °F 48.2 °F 82% 30.04 in - NW 4.6 mph - N/A   Clear
7:00 AM 57.2 °F 50.0 °F 77% 30.06 in - NW 3.5 mph - N/A   Clear
7:21 AM 60.8 °F 51.8 °F 72% 30.06 in - NW 3.5 mph - N/A   Clear
7:54 AM 64.4 °F 51.8 °F 64% 30.06 in - North 4.6 mph - N/A   Clear
8:00 AM 63 °F 52 °F 57% 30.06 in 6 mi NNW 3.5 mph - -   Mostly Cloudy
8:00 AM 64.4 °F 51.8 °F 64% 30.06 in - North 4.6 mph - N/A   Clear
8:36 AM 69.8 °F 51.8 °F 53% 30.06 in - NNW 3.5 mph - N/A   Clear
8:49 AM 73.4 °F 50.0 °F 44% 30.04 in - NNW 5.8 mph - N/A   Clear
9:00 AM 75.2 °F 48.2 °F 38% 30.04 in - NNW 5.8 mph - N/A   Clear
9:12 AM 78.8 °F 46.4 °F 32% 30.04 in - NNW 6.9 mph - N/A   Clear
10:00 AM 82.4 °F 48.2 °F 30% 30.04 in - NW 6.9 mph - N/A   Clear
10:10 AM 86.0 °F 46.4 °F 25% 30.04 in - NNW 8.1 mph - N/A   Clear
10:53 AM 91.4 °F 46.4 °F 21% 30.01 in - North 10.4 mph - N/A   Clear
11:00 AM 91.4 °F 46.4 °F 21% 30.01 in - North 10.4 mph - N/A   Clear
12:00 PM 95.0 °F 42.8 °F 16% 29.98 in - NW 8.1 mph - N/A   Clear
2:00 PM 95 °F 44 °F 10% 29.95 in 19 mi SW 15.0 mph - -   Clear
2:00 PM 95.0 °F 46.4 °F 19% 29.95 in - SW 15.0 mph - N/A   Clear
3:00 PM 93.2 °F 41.0 °F 16% 29.95 in - SSW 13.8 mph - N/A   Clear
4:00 PM 89.6 °F 37.4 °F 16% 29.95 in - SSW 15.0 mph - N/A   Clear
5:00 PM 87.8 °F 39.2 °F 18% 29.95 in - South 12.7 mph - N/A   Clear
6:00 PM 80.6 °F 42.8 °F 26% 29.98 in - Variable 2.3 mph - N/A   Clear
7:00 PM 71.6 °F 46.4 °F 41% 29.98 in - NNW 3.5 mph - N/A   Clear
8:00 PM 64 °F 44 °F 37% 30.02 in 19 mi SW 9.2 mph - -  
8:00 PM 64.4 °F 42.8 °F 45% 30.01 in - SW 8.1 mph - N/A   Clear
9:00 PM 68.0 °F 53.6 °F 60% 30.04 in - WSW 19.6 mph - N/A   Clear
10:00 PM 66.2 °F 51.8 °F 60% 30.04 in - WSW 15.0 mph - N/A   Clear
11:00 PM 64.4 °F 53.6 °F 68% 30.04 in - WSW 16.1 mph - N/A   Clear